TimeEST,TemperatureF,Dew PointF,Humidity,Sea Level PressureIn,VisibilityMPH,Wind Direction,Wind SpeedMPH,Gust SpeedMPH,PrecipitationIn,Events,Conditions,WindDirDegrees,DateUTC
12:53 AM,28.0,25.0,88,30.40,10.0,Calm,Calm,-,N/A,,Clear,0,2012-12-31 05:53:00
1:53 AM,28.0,25.0,88,30.39,10.0,Calm,Calm,-,N/A,,Clear,0,2012-12-31 06:53:00
2:53 AM,28.0,25.0,88,30.37,10.0,Calm,Calm,-,N/A,,Clear,0,2012-12-31 07:53:00
3:53 AM,28.0,25.0,88,30.37,10.0,Calm,Calm,-,N/A,,Clear,0,2012-12-31 08:53:00
4:53 AM,27.0,24.1,89,30.37,10.0,Calm,Calm,-,N/A,,Clear,0,2012-12-31 09:53:00
5:53 AM,28.0,24.1,85,30.39,10.0,Calm,Calm,-,N/A,,Clear,0,2012-12-31 10:53:00
6:53 AM,27.0,24.1,89,30.40,10.0,Calm,Calm,-,N/A,,Clear,0,2012-12-31 11:53:00
7:53 AM,28.0,26.1,92,30.40,10.0,Calm,Calm,-,N/A,,Clear,0,2012-12-31 12:53:00
8:53 AM,33.8,30.2,87,30.42,10.0,Calm,Calm,-,N/A,,Clear,0,2012-12-31 13:53:00
9:53 AM,37.9,30.9,76,30.43,10.0,Calm,Calm,-,N/A,,Clear,0,2012-12-31 14:53:00
10:53 AM,46.0,28.9,51,30.41,10.0,WSW,8.1,-,N/A,,Clear,250,2012-12-31 15:53:00
11:53 AM,50.0,25.0,38,30.37,10.0,WSW,10.4,-,N/A,,Clear,250,2012-12-31 16:53:00
12:53 PM,53.1,24.1,32,30.32,10.0,SSW,11.5,-,N/A,,Clear,210,2012-12-31 17:53:00
1:53 PM,55.9,28.9,36,30.28,10.0,WSW,12.7,-,N/A,,Clear,240,2012-12-31 18:53:00
2:53 PM,55.9,34.0,44,30.27,10.0,SSW,12.7,-,N/A,,Clear,210,2012-12-31 19:53:00
3:53 PM,55.0,36.0,49,30.26,10.0,SSW,8.1,-,N/A,,Clear,210,2012-12-31 20:53:00
4:53 PM,52.0,36.0,54,30.24,10.0,SSW,5.8,-,N/A,,Partly Cloudy,200,2012-12-31 21:53:00
5:53 PM,50.0,37.0,61,30.25,10.0,SW,5.8,-,N/A,,Clear,220,2012-12-31 22:53:00
6:53 PM,48.0,37.0,66,30.24,10.0,SSW,5.8,-,N/A,,Clear,210,2012-12-31 23:53:00
7:53 PM,48.9,37.0,64,30.22,10.0,SSW,8.1,-,N/A,,Scattered Clouds,200,2013-01-01 00:53:00
8:53 PM,50.0,39.0,66,30.21,10.0,SW,6.9,-,N/A,,Overcast,220,2013-01-01 01:53:00
9:53 PM,51.1,41.0,68,30.20,10.0,SW,8.1,-,N/A,,Overcast,220,2013-01-01 02:53:00
10:53 PM,51.1,43.0,74,30.18,10.0,SW,9.2,-,N/A,,Overcast,230,2013-01-01 03:53:00
11:53 PM,51.1,43.0,74,30.17,10.0,SW,5.8,-,N/A,,Overcast,230,2013-01-01 04:53:00